Temp
23 23 23 23 23 24 24 24 24 24 24 24 24 24 24 24 23 23 24 23 23 24 25 25 25 25 25 25 25 25 25 25 24 24 23 23 23 23 23 23 23 23 23 22 22 22 22 22 22 22 21 21 21 21 21 21 21 20 20 20 20 20 20 20 19 19 19 18 18 18 18 18 17 17
23 23 23 23 23 23 23 24 24 24 24 24 24 24 24 24 23 23 23 23 24 25 25 25 25 25 26 25 25 25 25 25 25 24 24 24 23 23 23 23 23 23 23 22 22 22 22 22 22 22 22 21 21 21 21 21 21 20 20 20 20 20 20 20 19 19 18 18 18 18 17 17 17 17
23 23 23 23 23 23 23 23 24 24 24 24 24 24 24 24 24 23 23 23 24 24 24 25 25 25 25 25 25 25 25 25 25 24 24 24 24 24 23 23 23 23 23 23 22 22 22 22 22 22 22 21 21 21 21 21 21 20 20 20 20 20 20 20 19 19 18 18 18 17 17 17 17 17
23 23 23 24 24 24 23 23 23 23 24 24 24 24 24 24 24 23 23 22 23 24 24 24 25 25 25 25 25 25 26 25 25 25 25 24 24 24 24 24 23 23 23 23 23 22 22 22 22 22 22 21 21 21 21 21 20 20 20 20 20 20 20 20 19 19 18 18 18 18 17 17 17 17
24 23 23 23 24 24 23 23 23 23 23 24 24 24 24 24 24 23 23 22 22 23 24 24 25 25 25 25 25 25 26 26 25 25 25 25 25 25 24 24 24 24 23 23 23 23 23 22 22 22 22 22 21 21 21 21 20 20 20 20 20 20 20 20 19 19 18 18 18 18 17 17 17 16
24 24 23 23 24 24 23 24 23 23 23 23 24 24 24 24 24 24 23 22 22 22 24 24 25 25 25 25 25 25 26 26 25 25 25 25 25 25 25 25 25 25 24 24 23 23 23 23 22 22 22 22 22 21 21 21 21 21 21 21 20 20 20 20 19 19 19 18 18 18 17 17 17 16
24 24 23 24 24 23 23 24 24 24 24 23 23 24 24 24 24 24 24 23 22 22 23 24 24 24 24 25 25 25 25 25 25 25 25 25 25 25 25 25 25 25 25 25 24 24 23 23 23 22 22 22 22 22 21 21 21 21 21 21 21 20 20 20 19 19 19 18 18 18 18 17 17 16
24 24 24 24 24 23 23 23 23 23 23 23 23 23 24 24 24 24 24 23 23 22 22 23 24 24 24 24 24 24 25 25 25 25 25 25 25 25 25 25 25 25 25 25 24 24 24 23 23 23 22 22 22 22 21 21 21 21 21 21 21 20 20 20 19 19 19 19 18 18 18 17 17 16
24 24 24 24 24 23 23 23 23 23 23 23 23 23 23 23 23 24 23 23 23 22 22 23 23 23 23 24 24 24 24 24 24 25 25 25 25 25 25 25 25 25 25 25 25 25 24 24 23 23 23 22 22 22 21 21 21 21 21 21 21 21 20 20 19 19 19 19 18 18 18 17 17 17
24 24 24 24 23 23 23 23 23 23 23 23 23 23 23 23 23 23 23 23 22 22 22 22 22 23 23 23 23 24 24 23 24 24 24 24 24 24 25 25 25 25 25 25 25 25 25 24 24 24 23 23 22 22 22 21 21 21 21 21 21 21 20 20 20 19 19 19 18 18 18 17 17 17
24 24 24 23 23 23 23 23 23 23 23 23 23 23 23 22 22 22 22 22 22 21 21 21 21 22 22 22 22 23 23 23 23 23 23 23 24 24 24 24 25 25 25 25 25 25 25 25 24 24 24 23 23 22 22 22 21 21 21 21 21 21 20 20 20 19 19 19 18 18 18 18 17 17
24 24 23 23 23 23 23 24 23 23 23 23 22 23 22 22 22 22 22 22 21 21 21 21 21 21 21 21 21 22 22 21 22 23 23 22 23 23 23 23 24 24 24 24 24 24 24 24 24 24 24 24 23 23 22 22 21 21 21 21 21 21 21 20 20 19 19 19 18 18 18 18 17 17
23 23 23 23 23 23 23 24 24 23 23 23 23 23 22 22 22 22 22 22 21 21 20 20 21 21 20 21 21 21 21 21 22 23 22 22 22 22 22 22 23 23 23 24 24 24 24 23 24 23 23 24 24 23 23 22 22 22 21 21 21 21 21 20 20 20 19 19 19 18 18 18 17 17
23 23 23 23 23 23 23 23 23 24 23 23 23 23 23 22 22 22 22 22 21 21 20 21 21 21 21 21 21 21 22 22 22 22 21 21 21 21 21 21 22 22 23 23 23 23 23 23 23 22 23 23 23 23 23 23 23 22 22 21 21 21 21 21 20 20 20 19 18 18 18 18 17 17
23 23 23 23 23 23 23 23 23 23 23 23 24 24 23 23 22 22 22 21 21 21 21 21 21 21 21 22 22 22 22 22 22 21 21 21 21 20 20 20 21 22 23 22 22 22 23 23 23 23 23 23 23 23 24 24 23 23 22 22 22 21 21 21 21 20 20 19 19 18 18 18 17 17
23 23 23 23 23 23 23 23 23 23 23 23 23 24 24 23 23 22 22 22 22 21 21 21 21 21 21 22 22 22 22 22 22 21 21 21 21 20 20 20 21 22 22 21 21 22 23 23 23 23 24 24 24 24 24 24 24 23 23 22 22 22 21 21 21 21 20 20 19 18 18 18 17 17
23 23 23 23 23 23 23 23 23 23 23 23 23 23 23 23 23 23 22 22 22 22 22 21 21 22 22 22 22 22 22 22 22 21 21 21 21 20 20 20 21 22 22 21 20 21 22 22 22 23 24 24 24 24 24 24 24 24 23 23 22 22 21 21 21 21 20 20 19 18 18 18 17 17
23 23 23 23 23 23 23 23 23 23 23 23 23 23 23 23 23 23 23 23 22 22 22 21 22 22 22 22 22 23 23 22 22 22 21 21 20 20 20 20 21 22 22 21 20 20 21 21 21 22 23 23 22 23 23 23 24 24 24 23 22 22 22 21 21 21 21 20 19 19 18 18 17 17
23 23 23 23 23 23 23 23 23 23 23 23 23 22 22 23 23 23 23 23 23 23 22 22 22 23 23 23 23 23 23 22 22 22 21 20 20 19 20 20 21 21 21 20 19 20 21 21 20 21 22 21 21 22 22 22 22 23 23 23 22 22 22 21 21 21 21 20 20 19 18 18 17 17
23 23 23 23 23 23 23 23 23 23 23 23 22 22 22 22 23 23 23 23 23 23 23 23 23 23 24 24 24 23 23 22 22 21 20 20 19 19 19 19 20 20 20 20 19 19 20 20 20 20 21 21 21 21 22 22 22 22 22 22 22 22 21 21 21 21 21 20 20 19 18 17 17 17
23 23 23 23 23 23 23 23 23 23 23 23 22 22 22 22 22 22 23 23 23 23 23 23 23 23 23 23 23 23 22 22 20 19 19 20 19 19 19 18 19 20 20 20 19 19 19 20 20 20 21 20 20 21 21 21 22 22 22 22 22 22 21 21 21 21 21 20 20 19 18 18 17 18
23 24 24 23 23 23 24 24 24 23 23 23 22 22 22 22 22 22 23 23 23 23 23 23 23 23 22 22 22 22 22 22 20 18 19 19 19 18 18 18 19 20 20 20 20 19 19 20 20 20 20 20 20 20 20 21 21 21 21 21 22 22 21 21 20 21 20 20 20 19 19 18 17 18
23 24 24 24 23 24 24 24 24 24 23 23 23 22 22 22 22 23 23 23 23 22 22 22 22 22 22 22 22 22 22 21 20 20 20 20 19 18 18 18 18 19 20 20 20 20 20 20 20 20 19 19 20 20 20 20 21 21 21 21 21 21 21 20 20 20 20 20 20 20 19 18 18 17
23 23 23 24 24 24 25 25 25 24 24 23 23 23 22 22 22 23 23 23 23 22 22 22 22 22 22 22 21 21 21 21 21 21 21 21 19 18 18 18 18 18 19 20 20 20 21 20 20 20 19 19 20 20 20 21 21 21 21 20 20 21 20 20 20 20 20 20 20 20 19 18 18 17
23 23 23 24 25 25 25 25 25 25 24 24 23 23 22 22 22 23 23 23 23 22 21 21 21 21 21 21 21 21 21 21 21 21 21 21 21 20 19 18 18 18 19 20 20 19 20 20 20 20 20 19 19 20 20 20 21 21 21 21 21 21 20 20 19 19 20 20 20 19 18 18 18 17
23 24 24 25 25 25 25 25 25 24 24 23 23 23 23 22 20 21 22 22 21 21 21 20 20 20 20 20 20 20 21 21 21 20 20 20 21 20 20 20 19 19 20 21 20 19 19 20 20 20 20 19 19 19 19 19 20 20 20 20 20 20 20 20 20 19 19 20 19 19 18 18 17 17
24 24 24 25 25 24 24 24 23 23 23 23 23 22 22 21 19 18 20 21 21 21 21 20 20 20 20 20 20 20 21 21 20 20 20 20 20 20 20 20 20 20 21 21 21 20 19 19 19 20 20 19 19 18 18 18 19 19 19 19 19 19 19 20 19 19 19 19 19 18 18 17 17 17
24 24 24 24 24 24 23 23 23 23 23 23 22 22 22 20 18 18 19 21 22 22 21 21 21 21 21 21 21 21 20 20 19 19 19 19 19 19 19 19 20 20 20 20 20 20 19 19 19 19 20 19 19 19 18 18 18 19 19 18 17 18 18 18 18 18 18 19 19 18 17 17 17 17
24 23 23 23 23 23 23 23 22 22 22 22 22 22 21 20 18 18 19 21 22 22 21 21 21 21 21 21 20 20 20 19 19 18 18 18 18 18 18 18 18 19 19 19 19 19 19 19 19 19 19 19 19 19 19 18 18 18 18 17 17 17 17 16 17 17 17 17 18 17 17 17 17 16
24 23 23 23 23 23 22 22 22 22 22 22 21 21 21 20 19 18 19 20 21 21 21 21 21 20 20 20 19 19 18 18 18 18 17 17 17 17 17 17 18 18 18 18 18 19 19 19 19 19 19 19 18 18 18 18 18 18 18 17 17 16 15 15 16 16 16 16 16 16 17 17 16 16
25 24 23 22 22 22 22 22 22 21 21 21 21 20 20 19 18 18 18 19 20 21 21 20 19 19 19 18 18 18 18 18 18 18 17 17 17 17 17 17 17 17 18 18 18 18 18 18 18 18 18 18 18 18 18 18 18 18 18 17 17 16 16 16 16 15 15 16 15 15 16 16 16 16
24 23 21 21 21 21 21 21 21 21 21 21 20 20 20 19 18 17 17 17 18 19 18 18 18 17 17 17 17 17 17 18 18 18 16 16 16 16 16 16 17 17 17 17 17 18 18 18 18 18 18 18 18 18 18 18 18 18 18 17 17 16 16 16 16 15 15 15 14 15 15 16 16 16
22 21 20 20 20 20 20 20 20 20 20 20 20 20 20 19 17 17 16 16 16 16 16 16 16 16 16 16 16 16 16 16 16 16 15 15 15 15 15 16 16 16 16 17 17 17 17 17 17 18 18 18 18 18 18 18 18 18 18 17 17 16 16 16 16 16 15 14 14 14 14 15 15 15
21 20 20 20 20 20 19 19 19 19 19 20 20 20 19 18 17 16 15 14 14 14 14 14 14 14 14 14 14 14 14 14 14 14 14 14 14 15 15 15 16 16 16 16 17 17 17 17 17 17 17 18 18 18 18 18 18 18 18 17 16 16 15 15 16 16 15 14 14 13 13 13 14 15
20 19 19 19 19 19 18 18 18 18 18 19 20 19 17 17 16 15 14 14 14 14 14 13 13 13 13 13 13 13 13 13 13 13 13 14 14 14 14 15 15 15 16 16 16 16 16 16 17 17 17 17 18 18 18 18 18 18 18 17 17 16 15 15 15 14 14 14 14 13 13 13 13 13
18 18 18 18 18 18 17 17 16 16 17 18 19 18 16 15 15 15 15 15 14 13 13 13 13 13 13 13 13 13 13 13 13 13 13 14 14 14 14 14 14 15 15 15 15 16 16 16 16 17 17 17 17 18 18 19 19 18 18 17 17 16 15 14 14 13 13 13 13 13 13 12 12 13
18 18 18 17 17 17 16 16 16 17 16 16 17 16 15 15 15 15 15 15 14 13 13 13 13 13 13 13 12 12 12 13 13 13 13 13 13 13 14 14 14 14 15 15 15 16 16 16 16 16 17 17 17 18 18 19 19 19 18 17 16 16 14 14 13 12 12 12 13 13 13 13 13 13
18 18 18 17 17 17 16 15 16 16 15 15 15 16 16 16 15 15 14 14 14 14 14 14 13 13 13 13 12 12 12 12 12 12 12 13 13 13 13 13 14 14 14 15 15 15 16 16 16 16 17 17 17 17 18 18 18 18 18 18 17 16 14 13 12 12 12 12 12 13 13 13 13 13
18 17 17 16 16 16 15 15 15 14 15 15 16 16 16 15 15 15 15 15 15 15 15 14 14 14 13 13 12 12 12 12 12 12 12 12 12 12 13 13 13 13 14 14 15 15 16 16 16 16 17 17 17 18 18 17 17 18 18 18 17 15 14 13 13 12 12 12 12 12 12 12 13 13
16 16 15 15 15 15 14 14 14 14 15 16 17 16 16 15 15 15 16 16 16 16 15 15 15 14 14 14 13 12 12 12 12 12 12 12 12 12 12 12 12 13 13 14 15 16 16 16 16 16 16 17 17 17 17 16 16 16 17 17 16 15 14 13 13 13 12 11 11 11 11 12 12 12
15 15 15 14 14 14 14 14 15 16 16 16 16 16 15 15 15 16 16 16 16 16 15 15 15 15 15 14 14 13 12 12 12 12 12 11 12 12 11 12 12 12 13 13 14 14 14 15 15 16 16 16 17 16 16 16 15 14 13 13 14 14 13 13 13 12 12 11 11 11 11 11 11 11
15 15 15 14 14 15 15 15 15 16 16 16 16 15 15 15 16 16 16 16 16 16 16 15 15 15 15 15 14 13 13 12 12 12 11 11 11 11 11 11 12 12 12 12 13 13 13 13 14 15 15 15 15 15 15 15 14 12 10 10 11 11 11 11 12 12 11 11 11 11 11 11 11 11
15 15 15 14 14 15 15 15 15 15 15 15 16 16 16 16 15 16 15 15 15 15 15 15 15 15 15 15 15 14 14 13 12 12 11 11 11 11 11 11 11 11 12 12 12 12 12 12 13 13 13 13 13 13 13 12 11 10 9 9 10 10 10 11 11 11 11 11 11 12 12 12 12 12
14 14 14 14 13 14 14 14 14 15 15 15 15 16 16 15 15 15 15 14 15 15 15 15 15 15 15 14 15 15 14 13 13 12 12 11 11 11 11 11 11 11 11 11 11 11 11 11 11 12 12 12 12 11 11 10 10 9 9 9 9 9 10 10 10 11 11 11 12 13 13 13 13 13
14 13 13 13 13 13 13 13 13 13 14 14 15 15 15 15 15 15 15 15 15 14 15 15 15 15 15 14 14 14 14 14 13 13 12 12 12 12 11 11 11 11 11 11 11 11 11 11 11 11 11 11 11 11 10 10 10 9 9 9 9 9 9 9 10 10 10 10 11 12 13 13 14 14
Height
862 862 863 863 864 865 866 867 867 868 869 869 870 870 870 871 872 872 871 867 864 864 864 864 864 864 865 865 866 866 866 867 867 868 868 868 868 869 870 870 870 870 870 871 871 871 871 871 871 871 871 871 870 870 870 870 870 870 870 870 869 869 868 868 867 867 866 865 865 864 864 863 863 862
860 860 861 861 862 863 865 865 866 867 868 868 868 869 869 869 869 870 871 867 862 862 862 862 862 863 863 864 864 864 864 864 865 865 866 866 866 867 868 868 868 868 868 869 869 869 869 869 869 868 868 868 868 868 868 868 868 868 868 868 867 867 866 866 866 865 864 864 863 863 862 861 861 861
859 858 859 859 860 861 862 863 864 865 866 867 867 867 867 867 867 868 870 868 861 860 861 860 861 862 861 862 862 861 862 862 863 863 863 863 864 864 865 865 866 866 866 866 866 866 866 866 866 866 866 865 865 865 865 865 866 866 866 865 865 865 864 864 864 863 863 862 861 861 860 860 859 859
857 856 856 857 858 859 860 861 862 863 864 865 865 865 865 865 866 866 868 867 861 858 859 859 859 860 860 860 860 859 860 860 861 861 861 861 861 861 861 862 862 862 863 863 863 863 863 863 863 863 862 862 862 862 862 862 863 863 863 863 863 862 862 862 862 861 861 860 860 859 859 859 858 857
854 854 854 855 856 857 858 858 860 861 862 862 862 863 863 862 864 864 865 864 860 856 857 857 857 858 858 858 857 858 857 858 858 858 858 858 858 858 858 858 858 859 859 860 860 860 860 859 859 859 858 858 858 858 858 859 859 859 859 860 860 860 860 860 859 859 859 858 858 857 857 857 857 856
852 852 852 852 853 855 855 856 857 858 859 859 859 860 860 860 861 862 862 862 859 855 853 854 855 855 856 855 855 855 855 855 856 856 856 856 856 855 855 855 855 855 855 856 856 856 856 855 855 854 854 854 854 854 855 855 855 856 856 856 856 857 857 857 857 857 856 856 856 855 855 855 855 855
849 849 849 850 851 852 853 853 854 855 856 856 857 857 857 857 858 859 859 859 857 854 851 851 852 852 853 853 852 853 853 853 853 853 853 853 853 852 852 851 851 851 851 851 851 851 851 851 850 850 850 850 851 851 851 852 853 853 853 853 853 854 854 854 854 855 854 854 853 853 853 853 853 853
847 847 847 847 848 850 850 850 851 852 853 853 854 854 854 855 855 856 856 855 855 853 850 848 849 850 850 850 850 851 851 851 851 850 850 850 849 848 848 848 847 847 847 847 847 847 846 846 846 846 847 847 848 849 849 850 850 851 851 851 851 851 851 852 852 852 852 851 851 851 851 851 851 850
844 844 844 845 847 848 847 847 847 848 849 850 851 851 852 852 853 853 854 853 853 852 849 847 846 847 848 847 848 848 849 848 848 847 847 846 846 845 844 843 843 843 843 842 842 842 842 842 842 843 844 845 846 847 847 848 848 848 848 848 849 849 849 850 850 850 850 849 849 849 849 849 849 848
841 841 841 842 844 845 844 843 844 845 847 847 848 848 849 850 850 850 850 851 851 850 848 846 845 845 845 845 845 846 846 846 845 844 843 842 841 840 839 839 839 838 838 838 838 838 838 838 839 840 841 842 842 843 843 844 845 845 845 845 846 846 847 847 847 848 848 847 847 848 847 847 847 847
838 838 839 840 841 841 841 841 841 843 844 844 845 845 846 847 847 847 847 848 848 847 846 845 844 842 842 843 843 843 843 843 842 841 838 836 836 836 835 835 835 835 834 833 833 834 834 834 834 835 836 837 837 838 839 839 840 841 841 841 842 843 843 844 844 845 845 845 845 845 845 845 845 845
835 835 836 837 838 838 838 838 839 840 841 842 842 842 843 844 844 844 844 844 845 844 843 842 841 840 839 839 839 839 840 839 837 835 835 832 831 832 831 832 833 833 832 830 829 828 829 830 830 830 831 832 832 833 834 834 835 835 836 837 837 838 839 840 840 841 842 842 843 843 843 843 843 843
831 832 833 834 834 835 835 836 837 838 839 839 839 839 840 841 841 841 842 842 841 841 840 838 837 836 835 835 835 834 834 833 831 831 831 829 828 830 829 829 831 831 830 827 825 824 825 826 826 826 826 827 828 828 828 829 829 830 831 832 833 834 834 835 836 837 838 839 839 840 840 840 840 841
827 828 830 830 831 832 832 833 834 835 836 836 836 836 837 838 838 838 839 838 838 837 836 834 833 832 830 830 831 830 828 828 828 828 829 828 828 829 828 826 827 828 826 824 821 821 823 824 823 822 822 821 822 822 822 822 823 824 825 827 827 829 829 830 831 832 833 834 835 836 837 837 838 838
824 825 826 827 828 829 829 829 830 831 832 832 832 833 834 835 835 835 835 834 834 833 832 830 830 829 826 826 827 827 825 825 825 825 826 826 827 828 827 825 824 823 822 821 818 817 819 819 817 815 814 813 813 813 813 815 816 818 819 820 821 823 824 825 826 827 828 829 830 831 833 833 834 835
821 822 823 824 824 824 825 826 827 828 828 828 829 829 830 830 830 830 831 831 830 829 828 827 826 826 824 822 823 824 823 822 822 822 823 824 824 825 825 824 821 818 818 818 815 812 811 811 809 805 803 802 802 802 803 805 807 808 810 812 813 815 817 818 820 821 822 824 825 826 828 829 830 831
817 818 819 820 820 820 821 822 823 824 824 825 825 825 826 826 825 825 825 826 826 826 826 824 821 821 822 818 816 819 819 818 818 818 818 820 821 822 824 823 818 813 812 812 811 805 801 801 801 795 791 792 793 794 795 796 798 799 801 803 805 807 809 811 813 815 816 818 819 821 823 824 825 827
814 815 816 816 816 816 817 818 819 820 821 821 822 822 822 821 819 819 819 820 821 822 822 820 816 816 817 813 810 813 816 815 814 813 814 817 821 824 825 822 811 803 801 804 806 800 793 795 796 790 788 791 792 792 793 794 795 795 795 796 798 800 802 804 805 807 809 811 813 815 817 819 820 822
810 811 812 813 812 812 813 814 815 816 817 818 819 819 818 817 814 813 813 815 816 816 817 815 811 809 810 808 805 807 811 811 809 810 814 818 823 825 822 812 800 793 794 800 807 802 792 792 795 790 789 793 792 790 791 792 792 793 792 793 794 795 796 797 798 800 802 805 807 809 812 814 815 818
805 807 808 808 808 808 809 810 811 813 814 815 816 816 816 814 810 808 809 810 810 810 809 807 805 804 804 802 800 801 807 808 807 810 814 816 819 819 812 804 796 791 791 797 804 802 790 788 791 788 786 787 785 783 784 784 785 786 787 788 789 790 790 791 792 794 796 798 801 803 806 808 811 813
801 802 803 804 804 804 804 806 807 809 810 811 812 813 813 811 807 805 805 804 803 803 803 801 800 799 798 797 795 797 803 804 805 811 812 810 812 811 805 800 795 790 788 792 799 797 785 782 786 784 780 781 780 777 777 776 776 778 778 778 780 781 783 785 787 789 791 793 795 797 800 803 806 808
796 797 798 800 801 800 800 801 803 805 806 806 807 809 809 808 805 802 801 799 797 798 799 797 796 796 795 794 793 794 797 799 803 807 805 803 806 806 800 797 794 788 784 786 793 790 779 776 781 780 777 775 772 770 770 769 769 770 770 770 771 771 775 779 783 785 786 788 790 792 794 798 801 804
792 792 793 795 796 796 796 797 798 800 801 801 802 804 806 806 802 798 797 794 793 795 796 795 794 793 791 791 791 791 792 795 797 799 796 796 799 798 793 792 793 787 778 779 785 783 773 771 775 775 774 770 765 763 764 762 762 762 762 763 765 766 768 772 776 779 781 783 785 787 789 792 796 798
787 788 789 791 791 791 792 792 793 795 796 797 798 800 802 802 799 796 793 790 790 792 792 792 791 789 788 788 789 788 789 790 791 790 790 790 791 790 788 787 788 782 772 772 777 774 767 766 768 768 769 765 759 757 756 755 755 755 755 756 759 761 763 766 769 773 776 778 780 782 785 787 790 792
783 784 785 786 786 787 787 788 789 790 791 793 793 795 797 797 797 796 791 787 788 789 787 787 786 785 785 785 785 785 784 784 785 785 784 784 784 784 782 781 781 775 766 766 771 768 763 763 762 762 762 758 753 752 751 749 748 747 747 748 750 753 756 758 761 766 770 773 776 779 782 784 785 787
779 780 781 782 782 783 784 784 786 786 788 789 789 790 792 792 793 795 791 786 786 785 783 783 782 781 781 780 779 780 779 778 780 781 780 778 777 776 775 774 774 768 760 761 765 764 760 758 756 756 755 751 748 746 745 744 743 742 742 743 744 746 749 751 754 758 763 767 770 773 777 780 782 784
776 776 777 778 779 780 781 782 783 783 784 785 785 786 787 787 787 789 790 789 785 781 781 781 779 777 778 777 776 776 774 773 774 775 775 773 771 769 768 767 765 761 757 758 760 759 755 751 750 750 748 745 743 742 740 739 738 738 738 738 740 742 744 745 748 752 756 761 764 768 772 776 778 780
773 774 775 776 777 778 778 779 780 780 781 782 782 782 783 782 782 784 788 789 784 779 779 779 777 775 776 775 773 773 771 769 770 770 770 768 767 766 765 763 760 756 755 755 755 754 751 746 744 744 742 741 740 737 735 734 733 734 736 736 738 739 739 740 744 747 750 755 759 762 766 770 773 776
770 771 772 773 774 775 775 776 777 778 778 779 779 780 780 779 779 781 783 784 781 778 777 777 776 774 774 773 772 771 769 767 765 765 764 762 761 761 760 758 756 753 751 750 748 748 747 743 740 739 738 737 735 732 730 729 727 729 732 734 735 735 735 737 740 743 746 749 751 754 757 761 766 770
767 768 769 770 771 772 773 774 774 775 776 776 777 777 777 777 778 779 780 780 778 777 776 775 774 773 772 771 770 768 767 764 762 761 760 758 755 755 753 751 748 745 744 744 742 741 740 738 736 734 732 730 729 727 725 723 722 723 726 728 730 731 732 734 737 739 742 743 745 748 751 756 761 765
763 764 765 767 768 769 770 772 772 773 773 774 774 775 775 776 777 777 778 778 777 777 776 775 773 772 771 769 767 765 764 761 759 758 758 755 752 750 749 746 741 738 737 737 736 734 733 731 730 729 726 724 722 721 721 719 717 718 719 720 722 723 724 728 731 734 736 738 741 744 747 750 755 759
759 761 763 764 766 767 768 769 770 770 771 772 772 773 774 774 775 775 776 777 777 778 777 776 774 773 771 769 767 765 763 760 757 756 756 753 750 748 746 743 737 732 729 728 728 728 727 725 724 721 719 717 715 714 714 713 711 713 713 713 715 716 718 720 724 727 731 734 736 737 739 743 747 752
757 759 761 762 764 765 766 767 768 769 769 770 771 772 772 772 773 773 774 775 776 776 777 776 775 774 772 771 769 767 765 762 758 756 754 752 749 746 744 740 735 730 725 722 721 722 721 720 718 715 712 710 707 706 707 705 704 706 706 705 707 710 711 713 716 719 724 728 729 730 732 736 741 746
755 757 759 761 762 763 764 766 766 768 769 769 769 769 769 770 771 771 772 773 774 774 775 774 774 773 772 771 770 768 765 762 759 756 753 751 748 745 742 737 732 729 725 719 716 716 715 713 711 708 705 702 698 697 699 699 697 698 699 699 700 702 703 706 709 712 714 717 720 722 725 729 733 738
755 757 758 760 762 763 764 765 766 767 767 767 767 767 768 769 769 770 770 771 771 772 772 772 772 772 771 770 768 766 764 761 758 755 752 749 746 743 740 735 730 726 723 718 713 712 710 708 705 701 698 695 691 689 691 693 692 692 693 693 694 695 697 699 702 705 707 709 712 715 718 723 726 731
756 759 760 762 763 764 764 765 766 766 765 765 765 766 767 768 768 768 768 769 769 770 770 770 770 769 768 767 765 763 761 758 755 753 750 747 744 741 737 734 728 723 719 715 711 708 706 704 701 697 693 691 689 685 684 685 685 685 686 687 688 689 691 693 697 701 703 706 708 710 712 715 719 723
758 761 763 764 765 765 765 765 765 764 764 764 765 766 766 767 767 767 768 768 768 769 769 768 768 766 765 764 762 760 757 755 752 749 747 744 742 738 734 731 726 720 715 711 708 705 702 699 698 695 691 689 687 682 679 678 679 680 681 682 682 683 685 689 693 697 700 703 705 705 705 707 712 716
758 760 762 764 764 765 766 765 764 764 764 764 765 765 766 766 767 767 768 768 768 768 767 766 765 764 763 761 759 757 755 752 749 746 744 742 739 736 732 728 723 717 712 708 704 702 699 696 694 692 689 686 683 680 677 675 675 676 676 676 676 677 680 683 686 689 692 696 699 702 704 706 709 713
758 760 761 762 763 764 765 766 765 764 764 764 764 765 766 766 767 767 768 767 767 766 765 764 763 762 760 759 758 756 753 750 748 745 743 741 738 735 731 727 721 715 710 705 701 698 696 693 691 689 687 683 680 677 675 673 672 672 672 673 674 674 674 675 677 680 685 690 695 702 707 709 712 717
759 761 761 762 763 764 765 765 764 764 764 764 765 766 766 767 767 767 767 766 766 765 764 763 762 760 759 758 758 755 752 750 747 745 743 741 738 735 732 727 722 716 710 705 700 697 694 691 689 686 684 680 677 675 672 671 669 669 669 670 671 671 671 671 672 675 679 684 691 697 703 707 712 718
760 762 762 763 763 764 764 764 764 764 764 765 766 766 767 767 767 767 766 766 765 764 763 762 761 760 760 759 757 755 752 750 748 746 743 740 737 734 731 727 722 717 712 707 702 698 695 691 688 684 681 677 675 673 671 669 667 667 668 668 668 669 671 672 674 675 678 682 687 694 700 706 712 718
762 763 763 764 764 764 764 764 764 765 765 766 767 767 767 767 767 766 766 765 764 763 762 762 761 761 760 759 757 755 753 751 748 746 743 740 737 734 731 727 723 718 715 710 706 702 697 692 686 682 678 676 674 672 670 668 667 668 670 670 669 670 672 674 677 679 682 686 689 691 695 703 712 719
764 764 764 764 764 764 764 765 765 766 766 767 767 767 767 766 766 765 765 764 763 762 762 762 762 762 760 758 756 754 753 751 749 746 743 741 738 735 732 728 725 721 718 714 710 705 699 693 688 683 679 677 675 674 672 672 672 673 674 674 674 674 675 677 680 683 688 693 696 695 695 701 709 716
765 765 765 765 766 766 766 766 766 767 767 767 767 766 766 765 765 765 764 763 762 762 762 763 762 761 760 757 755 754 752 751 749 746 744 741 739 737 733 730 727 723 720 716 712 708 702 697 692 687 684 682 680 678 677 676 676 678 680 681 680 680 681 682 685 688 692 698 702 704 706 710 715 719
765 766 766 766 766 766 766 766 767 767 767 767 766 766 765 765 765 764 763 763 763 763 763 763 762 760 759 757 755 754 752 750 748 746 744 742 740 737 734 731 728 725 722 719 715 710 706 701 697 693 691 688 687 685 684 682 682 683 686 688 688 689 689 689 691 693 697 702 706 710 714 719 724 727
Wind_Speed
19 20 21 21 21 20 18 18 16 15 16 15 15 14 13 10 5 2 2 4 7 11 13 13 13 14 14 15 17 18 19 19 19 20 20 20 19 18 17 17 17 17 17 17 17 17 17 17 18 18 18 18 18 17 17 17 16 16 15 14 12 12 12 12 11 11 10 9 9 8 8 9 10 10
19 21 21 22 22 21 19 19 19 18 17 16 17 16 15 15 11 7 4 5 10 12 13 13 13 14 15 15 16 18 18 18 20 21 22 23 22 21 21 20 20 19 20 20 20 20 19 19 20 20 20 20 20 19 19 19 18 17 17 15 13 12 12 12 11 10 9 9 8 8 8 8 9 9
19 20 22 22 22 21 20 20 20 20 18 17 18 18 18 18 17 14 9 5 11 15 14 16 17 17 18 17 17 19 19 19 20 21 23 24 24 24 24 24 23 23 22 22 22 22 22 22 22 22 22 22 22 21 21 20 20 19 18 17 15 13 12 12 11 9 9 8 8 8 7 7 6 6
20 21 22 23 22 22 21 21 21 20 20 19 19 19 20 20 19 18 13 9 15 23 22 23 25 22 21 20 20 20 20 20 21 22 23 23 24 25 27 27 26 26 25 25 25 24 24 24 25 25 24 24 24 23 23 22 22 21 20 19 17 15 13 12 11 9 8 8 8 7 6 6 5 6
22 23 24 24 23 22 23 23 22 21 21 21 22 21 21 21 20 19 17 15 18 27 28 27 27 25 22 22 22 22 22 22 22 23 23 24 25 26 27 27 28 28 28 27 27 26 26 26 26 26 26 26 25 25 24 24 23 22 21 20 19 17 15 14 12 10 8 8 8 7 6 6 6 7
25 25 26 26 25 24 24 24 24 23 23 22 23 24 23 23 23 21 21 19 18 24 29 28 28 28 25 25 25 25 24 24 24 24 25 25 25 26 27 28 28 28 29 29 29 28 28 28 28 28 28 27 26 25 25 24 23 23 22 22 21 19 17 15 13 11 9 8 8 8 7 7 8 9
27 27 28 28 27 26 26 26 26 25 25 24 25 26 26 26 26 25 24 23 21 23 28 28 28 28 27 26 27 26 25 25 25 26 26 25 26 27 27 28 29 29 29 30 30 29 29 29 29 29 29 28 27 26 25 24 23 22 23 22 22 21 19 17 15 13 10 9 9 9 9 8 9 10
28 29 30 30 29 27 27 28 28 28 28 27 27 27 28 28 29 28 27 27 26 25 26 29 29 27 26 27 27 25 25 26 26 26 27 27 28 29 29 30 31 30 30 30 31 31 31 31 31 30 30 29 28 27 26 25 24 23 23 23 23 23 22 20 18 15 12 10 11 11 10 10 10 11
30 30 31 32 29 27 28 30 30 30 29 29 28 28 29 29 30 30 30 30 29 28 28 32 32 30 28 29 29 27 26 26 27 28 28 28 29 30 31 32 33 32 31 31 32 32 32 33 33 32 31 30 29 28 28 27 26 25 25 25 25 24 24 22 20 18 15 13 12 12 11 11 11 12
31 32 32 32 30 29 31 32 32 31 29 29 29 29 29 29 29 30 30 30 29 30 31 32 33 33 32 31 31 31 28 27 28 29 30 31 31 32 33 33 34 34 34 34 33 33 34 34 34 33 32 31 30 30 29 29 28 27 27 26 26 26 25 25 23 21 18 15 14 13 13 12 12 13
33 33 33 33 32 32 33 34 33 32 30 30 30 30 30 29 28 28 29 29 28 28 30 31 32 32 31 30 31 32 29 27 28 30 31 33 33 33 34 35 34 35 35 36 36 35 35 35 35 35 34 33 32 31 31 30 30 29 29 28 28 27 27 26 26 24 21 18 16 15 14 14 14 14
34 34 34 34 34 34 34 34 34 33 31 30 31 31 30 28 28 28 28 27 26 27 28 29 30 30 29 27 28 29 27 26 30 32 32 33 34 34 33 34 33 34 35 37 38 38 37 37 38 38 37 36 35 35 34 32 32 31 31 30 30 29 28 27 27 26 24 21 19 17 16 16 15 15
35 35 35 35 35 34 35 35 35 34 33 32 33 33 30 28 28 28 28 27 26 26 26 27 28 27 25 26 27 28 27 29 32 33 29 30 33 32 31 32 32 32 35 37 39 39 38 37 38 38 39 39 38 37 37 36 35 34 33 32 32 31 30 29 28 28 26 25 22 20 18 18 16 16
36 35 35 35 34 35 35 35 35 35 35 35 36 36 33 30 28 28 28 28 28 27 26 27 28 25 25 26 27 29 31 32 32 31 27 28 29 27 26 28 30 31 33 35 39 40 38 37 38 38 40 41 40 39 39 39 38 37 35 34 33 33 32 31 30 29 28 27 25 22 20 19 18 18
36 35 35 35 34 35 36 36 36 36 37 37 37 38 37 35 33 31 29 29 29 28 28 28 27 25 27 29 29 30 32 32 31 30 27 26 26 23 21 20 24 29 29 29 32 36 35 34 37 39 40 41 41 41 41 40 39 38 37 36 35 35 34 33 31 30 30 29 27 25 23 22 20 19
35 34 34 34 34 35 35 35 35 35 36 37 37 38 38 38 38 38 36 34 32 30 30 29 28 28 29 32 31 31 32 32 31 29 26 25 25 24 22 20 25 31 30 25 27 33 36 34 35 39 41 41 41 40 39 39 39 39 38 38 37 36 35 35 33 32 31 31 30 28 25 24 23 21
35 34 34 34 34 36 35 34 34 35 35 36 36 37 37 38 39 40 40 40 38 37 34 31 32 32 31 34 36 34 33 32 29 27 26 25 26 25 23 24 31 37 35 29 27 33 39 37 35 40 44 42 42 41 40 39 38 38 38 39 39 38 37 36 35 33 32 32 31 30 28 26 25 23
35 35 34 34 35 36 35 34 34 34 34 35 35 35 36 38 39 40 40 40 40 41 39 38 41 40 38 40 43 41 37 34 33 31 28 23 21 19 20 27 38 43 41 35 28 30 39 36 33 41 45 40 39 41 40 40 39 37 38 38 39 39 38 37 36 34 33 33 32 31 30 29 27 24
37 36 34 34 36 37 35 35 34 34 34 34 33 33 34 37 39 40 39 38 39 39 40 42 45 46 45 46 47 46 40 38 39 35 27 20 15 15 22 34 44 48 44 35 24 25 38 34 27 35 41 35 36 40 39 39 40 39 39 39 39 39 39 39 38 36 34 33 33 33 32 31 29 26
38 37 35 35 37 37 37 36 36 35 34 33 31 30 31 34 38 39 38 37 37 37 39 41 44 45 45 46 48 47 42 41 38 27 23 23 17 18 27 35 42 46 42 31 22 25 38 36 27 33 38 33 34 38 38 39 40 38 38 39 39 40 41 41 40 38 36 34 34 34 33 32 31 27
38 38 37 37 37 38 38 37 37 36 34 33 31 30 30 33 36 38 37 36 38 38 39 41 42 43 44 44 47 46 43 44 36 21 24 28 19 18 24 26 31 41 40 28 19 24 37 39 31 34 38 33 33 36 37 40 40 38 38 39 39 41 42 42 42 40 38 36 35 35 35 34 32 28
38 38 38 37 37 38 39 39 38 36 35 34 33 31 30 31 34 37 37 38 38 36 37 39 40 41 42 42 44 43 42 43 36 27 32 33 21 19 25 25 27 35 39 32 22 24 36 39 32 31 31 30 35 38 38 39 40 39 39 39 39 41 41 42 43 42 39 38 37 37 36 36 33 28
38 38 38 37 38 39 40 40 40 38 37 36 35 32 29 28 32 37 39 39 37 32 31 32 34 36 38 38 39 39 37 36 33 31 36 35 29 29 32 31 23 21 29 33 25 27 36 36 30 29 22 17 26 34 36 37 39 40 41 40 40 41 41 41 44 44 42 40 39 39 38 38 35 30
36 36 35 35 37 38 39 39 39 39 39 38 37 34 29 28 32 37 39 39 38 34 31 30 32 35 37 35 32 32 32 30 29 30 33 34 34 35 36 36 27 22 30 34 26 28 36 33 29 30 25 17 18 24 30 35 37 38 40 40 40 41 42 42 44 45 45 43 41 40 40 39 37 34
35 34 33 34 36 37 37 37 37 37 37 38 38 36 32 31 32 35 41 42 40 38 35 33 34 35 34 33 32 32 33 31 28 27 28 31 34 35 37 38 33 34 44 45 35 33 36 32 29 30 29 27 25 25 27 31 36 39 39 38 39 40 42 44 46 47 47 44 42 41 41 41 39 36
34 34 34 35 35 35 35 34 33 33 32 32 33 33 34 32 27 27 38 43 39 39 38 34 34 35 33 34 34 33 34 35 31 28 27 29 33 35 39 40 38 41 48 49 41 38 38 37 34 31 29 27 28 28 27 28 35 40 38 37 38 39 41 44 47 49 49 47 45 43 42 42 41 37
35 34 34 33 32 31 30 29 28 27 25 26 26 24 26 25 18 18 25 29 29 34 35 32 33 34 32 31 32 30 31 32 30 26 25 28 31 34 37 41 43 47 50 48 44 40 40 41 39 36 35 31 26 22 22 25 31 34 35 37 39 38 41 44 48 52 52 50 47 44 43 43 41 37
34 31 29 28 27 26 25 23 22 21 19 19 18 16 15 13 6 8 12 11 17 24 26 26 28 29 27 27 27 28 29 31 29 27 26 28 29 31 34 37 41 46 48 48 47 45 43 43 42 41 40 37 29 21 20 24 29 30 31 32 33 37 41 42 45 50 52 50 49 47 47 47 43 39
32 29 27 25 24 22 21 19 17 15 14 14 14 13 11 7 3 13 19 9 12 19 20 20 23 23 24 25 26 28 30 32 32 30 29 29 29 29 30 33 36 40 43 45 48 48 45 45 45 44 42 39 36 31 27 27 29 30 30 28 29 34 40 40 42 46 48 49 51 51 51 51 47 42
33 30 27 25 22 20 18 16 14 14 14 13 12 10 6 4 7 13 22 16 9 11 14 17 19 21 24 26 28 29 29 30 30 29 29 31 32 31 31 31 34 37 38 39 42 45 46 46 45 44 42 40 39 37 34 31 29 28 30 32 28 26 30 37 42 44 45 48 50 50 51 50 47 44
35 34 30 26 23 20 18 17 16 14 12 8 5 2 2 5 8 9 14 17 14 11 13 17 20 23 25 26 27 27 27 28 30 30 29 29 31 32 31 31 33 36 35 35 36 38 41 44 45 44 43 41 38 38 37 35 31 27 28 33 33 28 29 38 44 43 43 46 46 46 48 48 46 46
33 31 28 25 22 20 17 14 10 7 3 1 3 4 5 7 8 8 8 9 11 12 13 15 18 21 22 23 24 25 26 29 31 32 31 29 29 31 30 29 31 33 33 32 31 32 34 37 41 44 45 44 42 40 38 36 35 32 30 33 37 35 32 36 44 44 42 42 43 45 47 49 48 47
24 20 16 14 12 10 8 7 6 6 5 6 6 5 6 7 8 8 7 5 4 5 7 10 12 15 17 19 20 22 24 27 30 31 32 32 31 31 30 30 30 31 31 30 29 29 31 33 36 40 43 46 47 45 40 35 33 34 35 35 36 35 33 36 43 46 43 41 42 42 45 47 47 46
15 12 10 9 10 11 11 10 9 8 7 6 6 6 7 8 9 8 6 5 3 1 3 5 7 10 12 14 16 18 20 23 26 28 30 31 30 29 30 32 31 30 30 30 29 29 30 31 33 36 39 45 49 49 46 40 34 33 36 35 34 35 36 38 42 46 48 48 46 42 42 45 47 47
12 13 14 14 13 13 12 11 9 8 6 6 7 7 7 8 8 7 7 7 6 5 5 5 6 8 9 11 14 16 18 21 23 24 26 26 26 27 28 30 31 30 30 31 32 33 32 31 32 32 30 31 33 35 40 45 43 37 33 32 33 35 37 38 41 46 49 50 48 43 39 39 43 45
14 14 15 15 13 13 12 10 8 6 6 7 7 6 6 7 8 9 9 10 9 8 8 7 8 9 10 11 13 15 18 21 23 23 23 23 24 25 27 28 30 33 33 32 33 34 32 30 30 26 19 14 14 15 21 35 44 44 37 31 30 33 35 35 37 40 42 42 42 41 37 36 40 44
17 15 14 14 12 10 9 7 7 7 7 7 7 6 6 7 9 10 11 11 10 9 8 8 9 11 11 12 15 17 19 21 22 22 22 22 23 25 27 28 31 33 33 33 33 33 30 29 29 25 16 10 10 11 13 20 31 39 40 36 31 31 34 34 32 35 39 41 42 44 43 40 42 47
17 15 14 12 9 7 5 5 6 7 6 6 6 7 8 9 9 10 10 11 11 12 13 13 13 12 12 13 16 18 20 21 22 23 24 24 25 27 28 29 31 32 32 33 33 31 28 27 27 25 19 12 8 9 10 11 16 26 36 40 37 33 33 35 35 36 40 43 44 43 39 36 40 46
15 14 12 11 8 6 5 5 5 6 6 7 7 8 9 9 9 10 12 13 15 16 17 17 18 18 17 17 17 17 18 21 23 25 26 26 27 29 29 30 31 32 32 31 30 29 27 25 25 26 24 18 14 17 18 16 15 20 29 35 37 35 35 39 39 37 38 40 38 33 27 25 29 35
15 13 11 9 7 6 5 5 6 6 8 8 8 8 8 9 9 11 13 14 15 17 17 17 19 21 21 22 20 18 18 20 23 24 25 26 26 28 29 29 30 31 30 28 28 27 26 25 26 28 29 28 29 30 28 21 18 19 21 24 30 35 37 40 40 36 35 37 36 32 27 25 26 30
13 12 11 8 7 6 6 6 7 8 8 8 8 8 8 9 10 11 12 12 14 15 15 17 19 20 21 22 22 20 19 20 21 22 24 25 26 27 29 29 29 28 27 26 26 28 28 28 30 30 29 29 30 26 18 12 10 9 7 9 18 25 27 31 33 31 32 37 37 31 26 25 26 27
12 12 10 9 8 8 8 8 8 8 8 7 7 8 8 8 10 11 11 12 12 13 14 16 17 18 19 21 22 21 21 22 22 21 22 23 25 26 27 27 27 27 25 23 24 26 28 29 30 28 24 22 21 15 9 4 2 2 6 5 5 9 13 18 22 22 25 32 34 31 28 26 21 17
12 11 9 9 9 10 9 9 9 9 8 7 8 8 9 9 11 11 12 13 13 13 13 14 15 16 18 19 19 20 21 23 23 22 21 21 23 24 24 25 26 26 24 22 22 22 22 24 25 22 19 15 11 6 5 7 9 12 14 15 17 18 17 16 17 20 25 29 28 28 31 30 23 17
14 12 10 10 10 10 9 9 9 9 8 8 8 9 10 11 12 12 14 15 15 14 13 13 14 16 18 18 18 18 20 21 22 22 21 21 21 21 22 22 23 22 21 20 20 19 19 19 20 19 17 14 11 11 13 14 16 17 18 19 22 25 27 27 27 27 28 28 25 26 29 30 25 24
14 13 11 10 9 9 8 8 8 8 8 9 9 9 11 12 12 13 15 15 15 14 13 13 14 16 18 18 17 18 18 19 20 20 21 21 21 21 21 21 20 19 18 17 18 19 20 20 20 21 20 18 17 17 18 18 18 19 20 20 20 21 24 28 29 29 26 23 21 23 25 24 21 20
Wind_Direction
253 254 256 257 259 261 261 262 261 259 263 265 263 259 250 242 238 265 296 266 265 278 278 275 285 288 278 272 266 262 262 263 261 259 258 258 260 260 259 258 257 257 257 259 262 265 266 268 269 270 271 271 273 274 276 279 282 285 286 285 290 299 303 304 300 296 297 297 296 296 294 294 296 297
257 258 259 260 262 262 262 262 260 260 263 264 262 262 260 254 245 241 263 280 273 276 282 280 287 297 295 287 276 269 267 267 264 262 262 261 261 262 262 260 260 260 260 261 263 265 266 268 270 271 272 272 272 273 274 276 277 279 279 278 281 291 297 298 295 291 294 296 296 295 293 292 293 294
259 260 261 262 263 264 264 263 262 260 261 263 263 262 262 259 255 250 244 268 277 273 279 286 291 299 301 295 286 278 275 272 269 267 266 266 266 265 264 262 261 261 261 262 263 265 266 267 267 269 270 271 271 271 272 274 275 275 274 272 274 282 288 290 288 288 291 293 294 294 292 289 289 291
259 260 262 263 265 266 267 265 264 261 260 260 261 263 264 260 258 254 242 241 269 273 277 284 288 292 294 292 287 282 279 277 274 272 272 272 271 268 267 266 264 262 261 261 262 264 265 266 266 266 267 269 270 270 270 272 273 272 270 267 267 273 281 283 280 282 287 290 292 290 286 286 290 293
258 259 261 264 266 266 267 267 267 264 261 260 259 261 263 260 256 252 243 241 263 275 278 279 283 287 288 286 285 283 281 279 277 276 276 275 273 272 271 271 270 267 265 263 262 262 263 265 265 265 265 265 266 266 266 268 269 269 266 263 263 267 274 276 274 277 282 285 284 279 277 285 293 298
258 259 260 262 265 266 266 267 267 266 263 261 260 259 260 260 257 253 250 246 253 269 275 277 280 283 282 280 282 282 282 283 281 279 277 277 276 275 274 274 274 273 271 268 265 263 263 264 264 264 263 263 263 263 263 264 265 266 262 259 259 262 267 270 269 270 274 277 275 270 274 286 293 299
258 258 259 261 262 263 264 266 266 265 264 261 260 259 258 258 258 257 255 252 250 260 272 277 278 280 279 278 280 281 282 283 280 278 278 278 276 275 274 273 274 275 274 271 269 266 264 263 264 264 264 263 262 262 262 262 262 263 261 258 257 258 262 265 264 264 266 267 266 264 270 283 291 299
258 257 258 260 261 260 262 264 264 263 262 260 259 258 258 258 259 259 258 257 256 260 270 275 276 278 279 279 280 280 279 278 277 277 278 277 276 276 274 273 273 274 273 271 269 267 266 265 264 265 265 264 263 262 262 263 262 262 261 259 257 257 259 261 260 260 260 259 259 262 268 279 286 296
257 257 258 260 260 260 261 263 263 262 261 260 259 259 259 259 259 260 259 259 260 259 264 271 275 278 279 279 280 279 277 277 277 276 275 275 275 275 274 273 272 272 271 268 266 265 265 265 265 265 266 265 264 263 263 263 262 262 262 259 257 257 258 259 258 256 256 255 255 258 266 275 283 292
258 257 259 260 259 259 260 262 262 262 261 261 261 260 261 261 260 260 259 259 259 259 261 267 272 274 275 276 278 279 278 277 276 276 276 274 272 272 272 272 272 273 271 268 266 264 264 265 265 266 267 266 265 263 262 262 261 260 260 258 256 256 258 258 257 255 253 252 251 255 262 271 278 286
258 258 259 259 259 258 260 262 262 262 262 262 263 263 263 263 262 261 261 259 257 257 259 263 267 271 272 273 274 276 277 275 273 273 272 272 271 271 270 271 273 274 273 272 269 266 265 265 266 266 266 265 264 263 261 260 259 257 257 255 252 252 256 257 256 253 252 251 249 250 257 265 272 280
258 259 259 259 259 259 260 262 263 264 263 263 264 265 264 263 262 262 263 261 258 257 258 260 264 268 270 271 272 273 271 267 267 267 266 267 271 272 271 272 275 276 275 275 273 270 267 266 266 266 265 264 263 262 260 258 257 256 254 252 249 248 251 254 254 252 250 249 247 247 251 258 266 275
257 258 259 259 259 260 261 264 265 266 267 266 266 267 265 262 261 261 261 260 259 258 257 259 263 265 266 266 267 267 263 261 265 268 265 264 269 273 274 274 274 275 275 274 273 272 270 269 269 267 266 266 265 263 260 257 255 254 252 249 246 245 246 250 252 251 249 247 245 245 247 252 259 269
257 257 258 259 259 260 262 264 265 266 267 267 268 269 267 262 260 259 258 258 258 257 256 258 262 263 264 264 264 264 266 267 268 267 264 263 269 274 276 276 278 277 274 271 271 272 273 273 273 271 269 269 268 265 262 260 256 254 252 249 245 243 243 246 249 250 248 245 244 243 244 248 254 262
257 257 258 259 259 260 261 263 264 265 266 267 268 270 269 266 262 258 256 256 258 257 256 258 260 260 264 268 267 267 270 271 269 266 263 262 266 268 269 276 282 281 278 271 268 273 276 274 272 272 271 269 268 266 265 263 260 255 252 249 246 242 240 242 246 247 246 243 241 240 240 243 248 256
256 257 259 260 260 261 261 262 263 264 266 267 268 269 270 269 266 262 258 257 257 257 258 260 261 260 264 270 270 268 270 271 270 268 264 260 260 261 262 267 275 280 280 271 265 271 275 271 266 267 268 266 266 266 265 263 260 256 252 248 245 241 238 239 242 244 244 242 239 238 237 238 243 249
255 256 258 259 260 261 262 262 263 263 265 267 268 269 270 269 268 266 263 260 259 258 259 262 263 263 264 267 268 269 270 270 269 266 261 258 257 257 261 267 274 279 277 265 258 264 269 265 259 261 265 264 263 264 263 261 259 257 253 247 243 239 236 236 238 239 240 239 237 235 234 234 238 244
254 255 256 257 260 262 261 261 261 262 263 264 265 267 268 269 270 269 267 264 262 260 258 258 262 265 265 265 268 271 269 267 266 264 261 261 261 263 270 274 276 277 271 258 251 260 267 263 254 259 265 266 265 266 265 264 262 260 257 251 244 239 234 232 233 234 235 236 234 232 230 229 233 238
253 254 254 256 259 261 261 261 261 261 262 262 262 263 266 269 272 271 269 269 268 266 263 261 264 268 268 267 269 270 268 266 267 266 268 273 276 275 274 272 271 273 270 258 245 257 271 269 259 263 270 270 269 269 268 266 265 263 261 257 249 242 235 231 230 230 231 232 231 228 225 225 229 232
253 254 253 255 257 259 261 262 262 262 262 261 260 260 263 267 270 271 271 272 271 271 271 269 269 271 272 273 274 272 269 267 268 269 274 274 266 257 261 264 267 272 274 265 243 248 267 270 264 267 272 269 267 268 267 266 265 262 261 259 254 247 238 231 228 228 228 228 226 224 221 221 224 228
253 254 254 254 256 259 261 262 263 263 262 260 257 257 259 263 267 270 272 273 272 272 273 274 275 275 276 278 279 278 275 271 268 266 269 267 253 242 251 256 264 270 274 270 247 243 259 265 263 266 271 269 267 267 265 264 263 260 258 256 253 250 242 233 228 226 226 225 222 220 217 217 219 222
254 255 255 255 255 258 261 263 264 263 261 259 256 254 255 259 264 269 272 273 272 272 273 276 277 278 278 279 281 282 282 277 271 262 262 260 247 242 251 254 262 271 273 269 253 242 256 264 262 261 267 268 266 264 263 262 261 259 257 253 250 248 242 235 229 226 224 223 220 217 214 214 215 215
255 256 256 257 257 259 262 264 264 264 261 259 257 255 253 254 260 268 272 273 273 272 272 274 277 278 279 281 283 285 286 283 278 270 267 262 247 242 251 255 258 268 272 268 253 243 255 263 259 254 258 264 265 263 260 260 259 258 256 252 249 246 241 235 230 226 223 221 218 214 212 211 210 209
255 256 257 258 260 262 265 266 267 266 263 260 259 255 250 250 258 268 273 273 274 275 274 274 276 279 281 283 283 286 288 285 279 275 274 268 254 244 247 252 251 252 262 263 249 243 254 261 259 254 249 245 257 261 257 257 258 258 255 251 248 245 239 233 229 225 223 220 217 213 211 210 208 205
253 256 257 260 263 266 269 270 271 271 268 266 263 258 254 253 255 265 273 275 276 277 278 279 279 280 282 283 282 282 283 281 276 272 271 269 262 251 246 248 247 249 258 262 252 245 254 259 259 256 249 241 245 250 251 253 255 254 252 248 245 242 237 231 226 222 220 218 214 212 211 210 207 206
251 255 258 262 266 269 271 272 274 274 275 273 268 266 267 261 248 252 268 276 278 278 278 280 281 281 281 281 282 282 281 281 279 275 270 267 265 259 253 250 247 248 259 266 260 250 252 256 255 253 248 244 245 244 243 246 250 251 249 245 242 238 235 231 224 218 216 214 210 210 211 210 206 207
252 256 259 262 267 269 270 272 274 274 276 276 275 277 279 271 251 238 255 268 276 278 277 276 276 279 280 281 283 285 287 289 288 282 275 270 267 264 260 257 255 255 261 268 265 256 253 253 253 250 248 248 249 244 238 239 244 246 245 242 238 233 231 230 222 216 213 211 209 208 208 206 205 207
252 255 258 260 264 266 268 270 272 274 278 280 282 288 291 290 272 192 197 236 269 272 274 274 273 278 284 286 289 295 298 301 299 294 289 283 276 272 268 264 263 262 263 265 265 261 256 255 255 254 252 251 251 248 243 241 241 240 240 240 236 230 227 224 218 214 212 209 207 205 202 201 201 203
250 252 254 257 260 263 266 270 273 277 282 283 288 295 301 324 52 142 156 181 269 266 264 270 274 281 293 297 301 305 306 306 305 303 301 298 293 288 282 276 273 271 269 268 267 265 261 259 259 259 257 254 252 251 250 247 243 239 235 234 233 230 225 217 213 212 210 207 205 203 200 199 199 200
248 249 251 254 256 259 262 268 272 278 284 286 292 302 311 15 75 138 163 179 228 257 266 277 283 293 302 305 306 309 309 309 308 309 309 307 304 301 296 291 286 281 277 274 271 268 265 263 262 262 261 258 255 252 251 250 246 240 231 226 228 229 220 214 213 212 208 206 204 201 199 199 199 201
249 248 249 250 254 258 263 270 275 278 283 287 293 330 61 92 93 125 167 188 207 237 269 285 293 300 305 308 311 315 316 314 312 313 313 310 306 305 303 297 292 288 285 280 276 272 267 264 263 261 260 260 259 257 255 253 249 243 233 226 223 223 218 214 212 210 207 205 201 198 196 196 199 202
250 249 250 253 258 262 263 263 262 256 250 169 133 118 103 108 111 114 141 181 207 230 257 277 290 299 306 310 314 316 315 313 312 314 314 310 305 305 305 299 293 292 291 287 282 278 274 270 265 261 258 257 257 256 255 253 248 243 239 231 225 224 222 214 209 208 206 201 196 194 194 195 198 201
246 246 248 247 243 234 216 194 166 147 139 130 120 107 91 84 86 93 105 128 178 226 256 274 286 297 303 306 308 310 309 309 310 311 311 308 305 304 302 297 293 292 293 292 290 287 284 281 276 269 263 260 257 253 251 252 248 242 238 233 225 221 219 215 211 207 202 196 193 192 192 194 198 201
231 220 203 187 172 158 147 139 131 128 132 123 95 75 70 67 65 72 78 70 51 1 307 297 298 303 303 304 307 308 306 305 306 307 306 304 303 302 300 296 294 294 294 294 294 294 293 290 284 278 271 266 260 252 246 246 248 245 240 234 226 220 218 216 212 206 200 198 195 190 189 194 198 201
181 167 150 136 133 133 127 122 123 124 115 92 73 67 68 63 56 56 49 34 22 14 0 341 323 317 313 312 313 311 307 307 307 306 306 305 303 302 301 299 298 298 298 296 296 298 298 294 289 284 278 271 265 255 247 245 246 246 243 236 229 224 219 213 208 203 201 199 195 188 187 192 196 198
128 125 122 117 117 121 116 111 111 106 87 72 64 64 67 56 44 41 35 27 22 17 6 353 343 339 335 329 325 321 318 317 316 313 312 313 311 309 307 304 302 301 300 298 298 298 297 292 287 283 281 279 276 266 255 249 246 243 240 236 229 223 216 209 204 202 200 198 194 190 188 190 192 194
106 106 105 101 99 102 103 103 97 83 75 73 68 64 61 51 42 39 34 27 23 15 7 1 355 351 347 342 338 334 329 325 324 323 322 321 320 318 315 311 308 307 305 304 303 300 296 290 283 280 279 280 279 277 272 259 248 242 239 235 229 221 210 200 194 196 198 198 197 196 193 190 190 192
110 111 108 103 100 95 85 81 81 76 75 77 73 65 59 50 44 40 34 28 23 17 14 11 5 358 355 352 346 341 337 334 333 333 333 331 329 327 324 320 316 314 311 311 310 305 297 290 284 281 278 275 271 277 281 270 255 249 243 236 229 219 205 194 190 193 197 199 200 200 198 193 190 192
104 106 107 105 104 100 83 72 75 77 76 74 68 62 57 51 44 37 31 26 21 18 16 14 10 6 4 360 352 344 340 341 342 340 339 336 333 331 330 326 322 320 317 315 313 309 301 292 287 283 279 274 271 276 279 276 270 269 261 247 233 220 205 196 194 194 194 195 194 193 191 188 186 188
92 92 92 88 84 82 79 72 70 72 73 72 69 65 60 53 43 35 29 25 20 17 17 17 15 13 8 2 355 349 345 346 346 344 342 340 336 334 333 329 325 325 324 320 318 317 310 300 295 290 284 281 280 279 280 279 275 276 276 258 238 225 214 205 199 194 190 187 182 176 171 168 166 171
85 81 76 71 69 70 71 70 70 73 74 74 73 69 62 52 40 32 27 22 18 16 18 19 17 13 8 2 358 355 351 349 348 345 343 343 341 339 338 336 333 332 330 326 327 329 325 316 310 303 295 290 286 280 276 276 272 275 286 257 231 225 218 209 202 195 187 180 172 160 152 150 150 156
82 80 71 60 54 58 63 69 72 73 71 68 65 59 51 42 34 27 22 19 19 20 21 19 15 9 4 2 3 2 358 353 351 348 347 348 348 346 345 345 344 343 340 336 335 335 334 330 325 320 314 307 296 283 276 289 301 80 74 85 160 191 200 201 199 191 177 168 161 150 141 139 139 145
78 78 71 60 57 62 67 72 74 69 61 58 53 44 39 37 35 32 28 24 24 24 20 15 11 6 1 0 3 5 3 358 356 354 353 354 355 353 352 351 351 351 349 346 343 343 346 348 346 344 345 342 335 342 34 58 77 89 90 91 99 107 119 140 157 161 158 155 152 148 147 148 148 154
75 75 73 70 69 68 68 68 66 59 51 50 49 44 42 43 43 41 36 30 28 27 21 14 11 9 6 4 4 4 4 3 3 2 2 3 4 3 1 358 357 358 358 356 355 358 3 8 11 14 17 21 37 64 79 83 87 90 90 91 98 104 110 117 125 132 138 142 143 143 149 156 161 166
78 78 78 79 77 74 69 65 59 50 42 42 46 47 47 47 46 43 38 32 28 27 23 19 16 13 11 10 9 7 6 9 11 13 13 14 15 15 13 9 7 7 6 5 8 13 16 21 28 34 38 45 58 73 81 83 86 89 87 84 88 96 103 108 110 109 110 119 133 140 148 157 164 170